AirNav   Air Wisconsin Up To $57,000 Bonus
 
 984 users online  

I67 Cincinnati West Airport
Harrison, Ohio, USA

GOING TO HARRISON?


FAA INFORMATION EFFECTIVE 05 NOVEMBER 2020

Location

FAA Identifier: I67
Lat/Long: 39-15-33.3670N 084-46-27.5000W
39-15.556117N 084-46.458333W
39.2592686,-84.7743056
(estimated)
Elevation: 584.1 ft. / 178.0 m (surveyed)
Variation: 05W (2010)
From city: 2 miles E of HARRISON, OH
Time zone: UTC -5 (UTC -4 during Daylight Saving Time)
Zip code: 45030

Airport Operations

Airport use: Open to the public
Activation date: 09/1945
Control tower: no
ARTCC: INDIANAPOLIS CENTER
FSS: DAYTON FLIGHT SERVICE STATION
NOTAMs facility: DAY (NOTAM-D service available)
Attendance: MON-SAT 0830-1800, ALL SUN 0900-1700
UNATNDD ALL MAJOR HOLS.
Wind indicator: lighted
Segmented circle: no
Lights: ACTVT OR INCR INTST MIRL RWY 01/19 - CTAF. PAPI RWY 01 & 19 OPR CONSLY; MIRL RWY 01/19 PRESET LOW INTST SS-SR.
Beacon: white-green (lighted land airport)
Operates sunset to sunrise.

Airport Communications

CTAF/UNICOM: 123.0
WX AWOS-3PT: 118.15 (513-569-4964)
CINCINNATI APPROACH: 128.7
CINCINNATI DEPARTURE: 128.7
WX ASOS at HAO (13 nm NE): 121.425 (513-863-6137)
WX ASOS at CVG (14 nm S): PHONE 859-767-8210
WX AWOS-3PT at OXD (15 nm N): 118.625 (513-273-2032)
WX ASOS at LUK (19 nm SE): PHONE 513-321-6291

Nearby radio navigation aids

VOR radial/distance  VOR name  Freq  Var
CVGr351/15.0CINCINNATI VORTAC117.3004W

 
NDB name  Hdg/Dist  Freq  Var  ID
HOOK FIELD231/20.923904WHKF .... -.- ..-.
BATESVILLE108/23.125405WHLB .... .-.. -...
SPORTYS297/28.224504WPWF .--. .-- ..-.

Airport Services

Fuel available: 100LL
FUEL AVBL H24 SELF SVC.
Parking: hangars and tiedowns
Airframe service: MAJOR
Powerplant service: MAJOR
Bottled oxygen: NONE
Bulk oxygen: NONE

Runway Information

Runway 1/19

Dimensions: 2808 x 60 ft. / 856 x 18 m
Surface: asphalt, in fair condition
Runway edge lights: medium intensity
RUNWAY 1  RUNWAY 19
Latitude: 39-15.324840N39-15.787383N
Longitude: 084-46.459848W084-46.456810W
Elevation: 581.4 ft.580.6 ft.
Traffic pattern: leftleft
Runway heading: 005 magnetic, 000 true185 magnetic, 180 true
Displaced threshold: 75 ft.219 ft.
Markings: nonprecision, in good conditionnonprecision, in good condition
Visual slope indicator: 2-light PAPI on left (3.00 degrees glide path)2-light PAPI on left (3.50 degrees glide path)
UNUSBL BYD 9 DEGS L & R OF CNTRLN.
Runway end identifier lights: nono
Touchdown point: yes, no lightsyes, no lights
Obstructions: 16 ft. road, 257 ft. from runway, 3:1 slope to clear
APCH RATIO 20:1 TO DTHR.
57 ft. tree, 442 ft. from runway, 49 ft. left of centerline, 4:1 slope to clear
10 FT BLDGS, 180 FT FM RWY END, 140 FT R.

Airport Ownership and Management from official FAA records

Ownership: Publicly-owned
Owner: CINCINNATI STATE TECH & CMTY COLL
3520 CENTRAL PKWY
CINCINNATI, OH 45223-2612
Phone 513-569-4956
Manager: WILL BERNINGER
10004 WEST RD
HARRISON, OH 45030-1955
Phone 513-367-1201
ADNL CTC 513-367-5070.

Airport Operational Statistics

Aircraft based on the field: 39
Single engine airplanes: 37
Multi engine airplanes: 2
    
Aircraft operations: avg 78/day *
91% local general aviation
9% transient general aviation
<1% air taxi
<1% military
* for 12-month period ending 07 July 2020

Additional Remarks

FOR CD CTC CINCINNATI APCH AT 859-372-6440.

Instrument Procedures

NOTE: All procedures below are presented as PDF files. If you need a reader for these files, you should download the free Adobe Reader.

NOT FOR NAVIGATION. Please procure official charts for flight.
FAA instrument procedures published for use from 05 November 2020 at 0901Z to 03 December 2020 at 0900z.

 
IAPs - Instrument Approach Procedures
RNAV (GPS) RWY 19   download (209KB)
VOR RWY 19   download (222KB)
NOTE: Special Take-Off Minimums/Departure Procedures apply **CHANGED**   download (424KB)

Other nearby airports with instrument procedures:

KHAO - Butler County Regional Airport-Hogan Field (13 nm NE)
KCVG - Cincinnati/Northern Kentucky International Airport (14 nm S)
KOXD - Miami University Airport (15 nm N)
KLUK - Cincinnati Municipal Airport-Lunken Field (19 nm SE)
KMWO - Middletown Regional Airport/Hook Field (24 nm NE)
 
Loc | Ops | Rwys | IFR | FBO | Links
Com | Nav | Svcs | Stats | Notes
Area around I67 (Cincinnati West Airport)
 
Road maps at: MapQuest Bing Google
 
Aerial photo
WARNING: Photo may not be current or correct
Aerial photo of I67 (Cincinnati West Airport)
Photo courtesy of Harrison Social Flites Flying Club
Photo taken 08-Feb-2013
looking north.

Do you have a better or more recent aerial photo of Cincinnati West Airport that you would like to share? If so, please send us your photo.

 
Sectional chart

 
Airport distance calculator
Flying to Cincinnati West Airport? Find the distance to fly.

From to I67

Sunrise and sunset
Times for 02-Dec-2020
 Local
(UTC-5)
 Zulu
(UTC)
Morning civil twilight07:1312:13
Sunrise07:4312:43
Sunset17:1522:15
Evening civil twilight17:4522:45

Current date and time
Zulu (UTC)  03-Dec-2020 00:40:12
Local (UTC-5)  02-Dec-2020 19:40:12
 
METAR
KI67 030015Z AUTO 00000KT 10SM CLR 00/M03 A3034 RMK AO1
KCVG 
14nm S 
022352Z 19003KT 10SM FEW300 02/M04 A3032 RMK AO2 SLP276 T00171039 10056 20011 58001
KHAO 
14nm NE 
022353Z AUTO 00000KT 10SM CLR M02/M05 A3034 RMK AO2 SLP284 T10221050 10067 21028 55001
KOXD 
15nm N 
030015Z AUTO 23004KT 10SM CLR 01/M01 A3031 RMK AO2 T00061015
KLUK 
19nm SE 
022353Z 00000KT 10SM CLR 00/M02 A3035 RMK AO2 SLP284 T00001022 10061 20000 50000
TAF
KCVG 
14nm S 
022055Z 0221/0324 23005KT P6SM SCT300 FM030000 22003KT P6SM SCT250 FM031500 19006KT P6SM BKN150 FM032200 18004KT P6SM BKN100
KLUK 
19nm SE 
021730Z 0218/0318 24006KT P6SM FEW250 FM030000 00000KT P6SM SCT250 FM030700 00000KT 3SM BR BKN250 FM031400 20003KT P6SM BKN250
NOTAMs
Click for the latest NOTAMs
NOTAMs are issued by the DoD/FAA and will open in a separate window not controlled by AirNav.

 

 
 

FBO, Fuel Providers, and Aircraft Ground Support

  
 Business Name 
 
 Contact 
 
 Services / Description 
 
Fuel Prices
 
Comments
  
Cincinnati West Airport 513-367-1201
[web site]
[email]

Like us on facebook
Aviation fuel, Aircraft parking (ramp or tiedown), Hangars, Hangar leasing / sales, Passenger terminal and lounge, Flight training, Aircraft rental, ...
 
Crew car   Enterprise Rent-A-Car  
 
More info about Cincinnati West Airport
Shell
100LL
AS $4.35 
 Updated 20-Nov-2020
 
   2 read write
AS=Assisted/Self Service
Update Fuel Prices
 

Would you like to see your business listed on this page?

 If your business provides an interesting product or service to pilots, flight crews, aircraft, or users of the Cincinnati West Airport, you should consider listing it here.  To start the listing process, click on the button below
 
Add a business
 

Other Pages about Cincinnati West Airport

www.cincinnatistate.edu/...
 
Update a link
 
Copyright © AirNav, LLC. All rights reserved. Privacy Policy  Contact